Probability
7 9 9 5 1 1 3 6 7 7 6 5 2 2 4 6 8 9 9 8 6 4 3 3 2 1 1 1 1 0 0 0 0 0 0 0 0 0 0 0 0 0 0
9 9 7 3 1 1 2 3 3 4 4 4 2 2 4 6 9 12 12 9 7 5 5 4 2 1 1 1 0 0 0 0 0 0 0 0 0 0 0 0 0 0 0
7 6 4 2 1 2 2 2 1 1 2 4 5 4 4 6 8 13 15 13 9 7 6 5 4 3 3 1 0 0 0 0 0 0 0 0 0 0 0 0 0 0 0
3 3 3 2 2 3 3 3 2 1 3 6 7 5 4 5 7 12 16 16 15 12 8 6 6 7 6 4 2 1 0 0 0 0 0 0 0 0 0 0 0 0 0
2 1 2 3 4 4 4 4 4 4 6 7 6 4 3 4 5 9 12 15 17 18 14 10 9 10 9 8 6 3 1 1 2 1 1 1 0 0 0 0 0 0 0
1 0 2 4 4 4 5 6 5 6 8 8 4 3 3 4 4 6 8 10 14 18 17 15 16 15 12 10 8 6 4 3 4 3 3 3 2 1 0 0 0 0 0
0 0 1 2 2 3 5 5 4 5 7 7 4 3 4 4 5 6 6 7 9 14 17 18 21 21 17 12 9 7 6 5 5 5 5 6 5 4 2 0 0 0 0
0 0 0 0 1 2 3 3 2 3 4 6 5 3 3 4 5 6 7 7 9 13 16 18 22 22 20 17 11 6 5 6 7 8 7 8 8 8 7 4 1 0 0
1 1 0 0 0 1 1 1 1 1 2 4 4 3 2 2 3 5 6 8 9 10 11 13 16 17 17 17 13 6 3 6 8 10 10 10 10 11 11 8 3 1 1
0 0 0 0 0 0 0 0 1 1 1 2 3 3 2 1 1 2 4 5 6 5 5 6 8 10 12 14 14 9 5 6 8 10 11 11 12 11 10 8 6 3 2
0 0 0 0 0 0 0 0 1 2 1 1 1 1 2 2 1 1 2 3 3 3 2 2 2 5 8 10 11 9 7 6 6 8 10 12 11 10 9 8 6 3 2
0 0 0 0 0 0 0 0 0 1 1 0 0 0 1 2 3 2 2 3 3 3 2 1 2 4 6 7 6 6 5 5 4 6 8 10 10 10 10 8 6 4 4
0 0 0 0 0 0 0 0 0 0 0 0 0 0 1 2 3 3 3 3 3 2 2 1 2 4 4 4 4 4 4 3 2 3 5 6 8 9 10 8 6 7 8
0 0 0 0 0 0 0 0 0 0 0 0 0 0 0 1 2 3 3 3 1 1 1 0 1 3 3 2 2 2 2 1 1 1 2 3 4 5 6 5 4 6 8
0 0 0 0 0 0 0 0 0 0 0 0 0 0 0 1 1 2 3 2 1 0 0 0 1 1 1 0 0 1 1 1 0 0 1 2 2 1 1 1 1 2 3
0 0 0 0 0 0 0 0 0 0 0 0 0 0 0 0 0 1 2 2 1 0 0 0 0 0 0 0 0 0 1 1 0 0 0 1 1 0 0 0 0 0 0
0 0 0 0 0 0 0 0 0 0 0 0 0 0 0 0 0 0 1 1 0 0 0 0 0 0 0 0 0 0 0 0 0 0 0 0 0 0 0 0 0 0 0
0 0 0 0 0 0 0 0 0 0 0 0 0 0 0 0 0 0 0 0 0 0 0 0 0 0 0 0 0 0 0 0 0 0 0 0 0 0 0 0 0 0 0
0 0 1 1 1 0 0 0 0 0 0 0 0 0 0 0 0 0 0 0 0 0 0 0 0 0 0 0 0 0 0 0 0 0 0 0 0 0 0 0 0 0 0
1 1 2 2 2 1 0 0 0 0 0 0 0 0 0 0 0 0 0 0 0 0 0 0 0 0 0 0 0 0 0 0 0 0 0 0 0 0 0 0 0 0 0
2 3 3 3 2 1 0 0 0 0 0 0 0 0 0 0 0 0 0 0 0 0 0 0 0 0 0 0 0 0 0 0 0 0 0 0 0 0 0 0 0 0 0
3 3 3 3 3 1 0 0 0 0 0 0 0 0 0 0 0 0 0 0 0 0 0 0 0 0 0 0 0 0 0 0 0 0 0 0 0 0 0 1 0 0 0
4 4 4 4 4 3 1 0 0 0 0 0 0 0 0 0 0 0 0 0 0 0 0 0 0 0 0 0 0 0 0 0 0 0 0 0 0 0 0 0 0 0 0
7 6 6 6 6 4 1 0 0 0 0 0 0 0 0 0 0 0 0 0 0 0 0 0 0 0 0 0 0 0 0 0 0 0 0 0 0 0 0 0 0 0 0
10 9 8 7 8 6 2 0 0 0 0 0 0 0 0 0 0 0 0 0 0 0 0 0 0 0 0 0 0 0 0 0 0 0 0 0 0 0 0 0 0 0 0
12 10 8 9 10 7 3 0 0 0 0 0 0 0 0 0 0 0 0 0 0 0 0 0 0 0 0 0 0 0 0 0 0 0 0 0 0 0 0 0 0 0 0
Wind_Speed
2 2 2 1 1 1 1 1 0 1 1 2 3 2 3 2 3 4 6 12 12 11 12 12 12 11 11 11 10 10 10 9 9 8 8 9 9 10 9 9 9 8 8
2 2 2 1 1 1 1 0 1 1 0 1 2 2 2 2 1 3 5 8 11 11 12 12 12 12 12 12 11 11 10 10 9 9 8 8 9 9 10 9 9 8 8
2 2 1 1 1 0 1 0 0 0 1 1 1 2 2 1 1 0 4 5 6 10 11 12 12 12 12 12 12 12 11 10 10 9 9 8 8 9 9 9 9 9 8
2 1 1 2 1 0 1 1 1 0 1 1 1 2 1 1 1 1 2 4 4 5 8 11 11 11 12 12 13 13 12 11 11 11 10 10 9 9 9 10 10 9 9
2 2 2 2 1 1 1 1 2 1 0 1 2 2 2 2 2 3 1 2 3 4 4 8 10 11 12 12 13 13 13 13 12 12 12 12 11 10 10 10 10 10 10
3 2 3 2 1 2 2 2 1 0 1 1 3 2 2 3 2 3 3 2 3 4 5 6 5 6 11 11 11 12 13 13 13 14 13 13 13 11 11 11 11 10 10
3 2 3 2 1 3 2 2 2 1 1 1 1 1 2 3 3 3 3 2 3 4 4 5 5 4 5 10 11 11 12 13 14 14 14 14 13 13 12 12 12 11 11
2 2 3 2 2 2 2 2 2 1 1 1 1 1 1 1 1 3 2 3 3 2 3 4 5 5 4 3 6 12 13 13 13 14 14 15 14 14 14 14 13 13 12
3 4 3 3 3 2 2 2 3 3 2 1 1 1 1 1 1 0 1 2 2 1 2 2 4 4 5 4 4 7 10 10 12 14 15 14 14 14 14 15 15 14 14
3 4 3 3 3 3 3 2 4 3 2 2 1 1 1 1 1 1 1 2 3 2 2 2 2 3 4 3 4 6 8 9 10 12 14 15 14 14 15 16 17 16 16
3 4 3 3 3 3 3 4 3 3 3 3 2 2 1 0 1 1 1 0 1 1 2 2 2 2 3 4 3 5 8 8 8 9 11 12 13 13 14 16 18 18 18
3 3 4 3 2 2 3 3 3 3 3 3 3 3 2 2 1 1 1 1 1 1 1 1 2 2 2 3 4 7 8 8 9 9 10 10 11 12 13 15 17 18 19
3 4 4 3 2 2 2 2 1 2 2 2 2 2 3 3 2 2 2 2 2 1 1 2 2 2 2 2 3 6 8 8 8 8 9 10 10 11 12 14 16 17 18
5 4 3 2 2 1 2 2 1 0 1 2 2 2 2 2 2 2 2 2 3 2 1 1 1 2 2 3 3 4 4 8 8 8 8 9 9 10 11 12 13 14 14
4 4 2 2 2 2 1 1 0 1 1 1 2 2 2 2 2 1 1 1 2 3 3 1 1 2 2 2 5 3 2 6 8 9 9 9 9 10 10 11 12 12 12
4 2 2 2 2 1 1 1 1 1 1 1 1 1 2 2 3 2 1 1 1 2 2 2 1 0 1 1 4 2 3 6 10 11 11 11 11 11 11 11 11 12 13
3 2 1 1 1 1 1 1 1 0 0 1 2 1 1 1 2 3 3 2 2 1 2 3 2 1 1 1 2 3 3 4 5 12 13 13 12 12 12 12 12 12 13
3 3 2 2 2 1 1 1 2 1 1 1 2 2 3 2 2 2 2 3 3 2 2 3 3 3 3 3 3 4 5 5 4 8 12 14 14 14 14 13 13 13 13
3 3 2 2 2 1 1 1 1 1 2 2 2 2 2 3 2 2 3 3 3 4 2 3 4 3 3 3 3 4 5 4 6 7 10 13 14 15 15 15 14 14 14
4 3 3 3 2 2 2 1 1 1 2 2 2 2 3 3 2 2 3 3 3 3 4 3 4 4 3 3 2 3 3 3 4 6 5 6 11 14 16 16 16 16 16
5 4 4 3 3 3 2 2 2 2 1 2 2 3 4 3 2 2 3 2 3 3 4 4 4 4 3 3 3 3 3 3 4 4 4 4 4 6 8 12 15 16 16
4 3 4 4 4 3 4 4 0 3 3 3 4 3 4 5 6 9 9 7 6 5 4 4 4 5 5 4 3 4 4 4 4 3 3 4 4 4 5 6 11 16 18
5 4 4 4 3 3 6 5 4 2 4 4 4 4 5 4 2 3 6 10 10 12 11 7 7 7 6 5 4 5 4 5 5 5 5 6 5 5 5 7 11 14 16
4 4 5 5 4 5 9 8 6 5 6 6 6 5 5 4 4 3 4 5 5 7 9 9 9 9 8 6 5 5 6 6 7 6 6 6 6 6 7 5 8 11 13
4 5 5 5 5 5 9 10 8 5 6 7 7 6 6 5 6 6 5 6 6 6 9 10 12 12 12 11 7 4 5 6 7 6 5 5 5 5 5 5 7 12 14
5 5 6 6 6 6 10 12 11 5 6 6 5 6 8 8 8 8 5 5 7 6 6 7 6 9 10 12 13 9 8 7 7 6 5 4 5 4 5 5 4 4 6
Wind_Direction
72 68 60 62 43 111 149 179 145 31 7 340 316 330 334 355 113 139 148 160 165 174 174 173 176 178 178 177 176 175 174 172 169 167 165 167 163 160 157 153 149 145 143
88 91 89 60 47 65 71 103 141 148 273 304 315 332 319 339 117 143 148 163 172 181 183 182 184 186 187 186 186 184 183 182 176 173 172 172 172 169 167 164 162 157 154
84 91 115 110 53 78 127 148 84 97 238 243 253 268 281 317 320 140 152 156 175 187 189 189 191 193 194 193 192 192 189 188 182 181 180 179 178 178 175 173 171 168 164
68 83 88 73 8 352 109 146 162 194 277 286 276 266 272 273 272 267 176 166 170 180 190 194 197 198 200 200 199 199 198 194 190 189 188 186 186 184 182 181 179 177 174
74 76 83 69 0 34 45 14 81 65 321 284 265 241 238 235 241 254 238 184 173 175 176 191 200 204 205 207 207 206 204 202 198 197 197 195 194 190 188 187 185 184 184
67 50 98 76 22 50 57 48 59 136 234 247 274 260 221 216 214 223 226 206 187 193 190 184 185 208 211 210 210 210 211 209 204 202 204 203 201 196 193 192 191 190 191
73 48 61 87 59 68 56 43 36 323 253 217 270 267 233 210 208 207 207 213 206 201 193 179 173 192 205 208 212 213 217 216 212 209 209 208 207 203 200 199 197 196 196
53 80 62 47 52 72 67 43 39 357 347 57 327 303 247 190 242 213 194 205 206 202 200 199 185 191 197 189 205 214 223 226 221 218 215 212 210 207 206 205 203 201 202
75 52 54 45 29 47 65 38 32 24 6 358 37 17 8 28 310 191 196 164 161 191 209 190 193 195 201 196 190 208 221 229 230 227 222 218 214 211 209 211 210 208 207
93 85 70 58 35 44 46 31 56 9 3 348 28 62 90 71 341 343 252 168 177 184 201 219 196 184 181 179 185 188 203 217 228 232 229 224 221 218 216 217 217 216 214
107 100 93 70 48 58 58 42 42 25 11 10 357 349 358 277 238 250 298 326 228 192 182 186 195 184 179 173 176 186 196 202 215 227 231 226 226 224 222 223 225 225 222
123 106 102 79 59 60 62 48 30 35 36 21 360 346 348 351 353 359 334 320 305 280 169 166 180 191 187 171 186 177 190 198 210 219 227 227 228 229 228 229 231 232 230
119 91 85 79 67 67 75 58 48 37 24 19 360 346 352 351 3 2 346 330 320 288 250 211 189 179 174 144 157 179 189 197 210 220 228 231 232 232 233 232 233 235 234
100 107 98 100 93 59 51 46 357 32 55 1 348 357 325 331 356 353 347 339 322 313 288 240 164 146 148 142 161 187 193 200 210 220 228 233 236 237 237 235 235 235 235
121 112 121 115 102 83 48 18 360 29 26 341 335 352 334 331 336 339 338 333 325 320 319 324 42 136 163 154 171 194 198 207 215 223 229 233 236 238 238 237 234 232 232
90 120 120 112 112 111 85 356 326 79 43 344 289 351 343 335 349 332 322 319 306 298 302 321 319 94 141 225 187 214 230 224 220 222 227 230 233 235 236 236 235 233 233
132 141 141 148 154 160 116 338 310 306 332 326 325 339 329 326 334 332 329 320 308 302 292 303 321 321 293 269 243 243 248 233 228 225 225 227 229 231 233 234 235 235 235
172 179 178 189 212 163 139 281 298 337 339 328 331 339 326 321 341 311 321 319 317 305 283 286 294 290 274 254 237 240 256 259 254 236 226 225 227 229 232 233 235 235 236
189 191 185 194 218 192 192 225 276 315 323 318 322 320 314 314 313 317 320 309 308 307 309 290 286 281 275 269 257 253 258 262 267 260 236 226 227 231 232 233 234 235 235
195 198 203 210 219 222 212 213 244 261 278 295 301 297 287 286 289 302 293 293 298 306 297 286 277 276 272 266 254 253 266 255 262 271 266 242 230 230 232 232 232 233 233
202 194 205 218 228 224 216 201 258 260 285 288 282 275 273 263 254 250 278 315 321 312 307 301 294 292 291 303 292 283 279 277 268 262 259 255 234 230 230 234 235 237 234
206 205 215 224 234 231 134 124 159 317 311 296 289 286 279 247 224 225 238 246 249 263 277 288 292 293 298 302 312 303 297 296 289 281 289 281 271 254 243 231 227 227 229
202 213 226 229 220 179 164 169 187 253 276 277 282 282 284 294 287 250 237 237 244 247 241 247 264 273 281 289 301 302 295 292 284 287 292 280 274 272 264 262 246 231 228
204 213 224 232 227 210 191 194 202 233 258 261 259 257 257 266 276 279 287 274 257 250 239 231 239 250 257 261 265 271 275 277 268 262 250 261 262 260 267 263 258 242 233
207 216 222 225 226 215 201 202 203 238 249 252 251 248 240 234 222 229 251 269 276 276 270 255 235 242 250 257 255 267 269 270 275 271 252 248 258 262 261 258 254 245 238
214 226 228 223 224 222 207 205 203 235 254 257 252 243 238 230 218 218 235 256 267 272 285 293 276 258 251 251 242 232 242 254 264 270 260 257 266 270 271 258 255 247 242